Location: Jastrzębia Góra
(54.8312°N, 18.3037°E)
Time: 21:53:18
(UTC+01:00)

ISS - Pass Details

Date: 30 January 2019
Orbit: 403 x 411 km, 51.6° (Epoch: 21 February)

Event Time Altitude Azimuth Distance (km) Brightness Sun altitude
Rises 17:25:54 0° 241° (WSW) 2,330 2.0 -9.5°
Reaches altitude 10° 17:28:04 10° 233° (SW) 1,473 0.3 -9.8°
Maximum altitude 17:31:08 36° 164° (SSE) 664 -2.8 -10.3°
Enters shadow 17:33:38 14° 100° (E) 1,260 -1.9 -10.6°
